DW6903 Weather Reports


time (UTC)temp
C
wind
direction
speed
KPH
gust
KPH
rain 1hr
cm
rain 24hr
cm
rain mn
cm
humidity
%
barometer
mb
20240521030004 11 177 3.2 9.7 0.00 0.00 0.00 91 1015.2
20240521025403 11 181 3.2 11.3 0.00 0.00 0.00 91 1015.2
20240521024503 11 182 1.6 4.8 0.00 0.00 0.00 90 1015.2
20240521023705 11 172 1.6 6.4 0.00 0.00 0.00 90 1015.0
20240521022704 11 171 3.2 8.0 0.00 0.00 0.00 90 1015.0
20240521021905 11 137 4.8 12.9 0.00 0.00 0.00 90 1014.8
20240521020903 11 123 1.6 6.4 0.00 0.00 0.00 90 1014.8
20240521020107 11 158 1.6 8.0 0.00 0.00 0.00 89 1014.9
20240521015403 11 159 1.6 8.0 0.00 0.00 0.00 89 1014.9
20240521014504 11 164 1.6 8.0 0.00 0.00 0.00 89 1014.9
20240521013603 11 169 3.2 8.0 0.00 0.00 0.00 89 1015.0
20240521012703 11 167 1.6 9.7 0.00 0.00 0.00 88 1015.0
20240521011803 12 154 3.2 8.0 0.00 0.00 0.00 88 1014.8
20240521010903 12 149 1.6 6.4 0.00 0.00 0.00 88 1014.6
20240521010003 12 152 3.2 11.3 0.00 0.00 0.00 88 1014.7
20240521005403 12 145 3.2 8.0 0.00 0.00 0.00 87 1014.5
20240521004503 12 143 3.2 12.9 0.00 0.00 0.00 87 1014.4
20240521003707 13 139 3.2 11.3 0.00 0.00 0.00 86 1014.3
20240521002703 13 129 4.8 12.9 0.00 0.00 0.00 85 1014.3
20240521001803 13 136 3.2 11.3 0.00 0.00 0.00 85 1014.3
20240521000903 14 170 4.8 9.7 0.00 0.00 0.00 84 1014.3
20240521000106 14 169 4.8 12.9 0.00 0.00 0.00 83 1014.3
20240520235403 14 164 4.8 11.3 0.00 0.00 0.00 82 1014.3
20240520234504 15 150 3.2 11.3 0.00 0.00 0.00 82 1014.3
20240520233707 15 157 3.2 9.7 0.00 0.00 0.00 81 1014.3
20240520232703 16 165 4.8 12.9 0.00 0.00 0.00 80 1014.4
20240520231803 16 156 4.8 12.9 0.00 0.00 0.00 79 1014.4
20240520231006 16 138 6.4 17.7 0.00 0.00 0.00 78 1014.3
20240520230106 17 138 3.2 12.9 0.00 0.00 0.00 77 1014.3
20240520225507 17 132 3.2 12.9 0.00 0.00 0.00 77 1014.3
20240520224503 17 118 4.8 14.5 0.00 0.00 0.00 76 1014.4
20240520223708 17 118 4.8 11.3 0.00 0.00 0.00 77 1014.5
20240520222705 17 115 4.8 11.3 0.00 0.00 0.00 76 1014.5
20240520221803 17 148 3.2 8.0 0.00 0.00 0.00 76 1014.6
20240520220903 17 164 3.2 9.7 0.00 0.00 0.00 76 1014.7
20240520220105 17 124 4.8 14.5 0.00 0.00 0.00 76 1014.7
20240520215404 17 121 4.8 14.5 0.00 0.00 0.00 75 1014.7
20240520214505 17 124 6.4 14.5 0.00 0.00 0.00 75 1014.8
20240520213604 17 136 4.8 14.5 0.00 0.00 0.00 75 1014.7
20240520212703 18 137 6.4 14.5 0.00 0.00 0.00 75 1014.8
20240520211804 18 116 6.4 14.5 0.00 0.00 0.00 73 1014.9
20240520211006 18 117 6.4 17.7 0.00 0.00 0.00 73 1014.9
20240520210003 18 146 6.4 16.1 0.00 0.00 0.00 73 1014.9
20240520205506 18 141 8.0 16.1 0.00 0.00 0.00 73 1014.9
20240520204503 19 129 3.2 11.3 0.00 0.00 0.00 72 1015.0
20240520203603 18 77 6.4 16.1 0.00 0.00 0.00 71 1015.0
20240520202703 19 85 8.0 16.1 0.00 0.00 0.00 70 1015.1
20240520201908 20 102 6.4 16.1 0.00 0.00 0.00 70 1015.0
20240520201005 20 121 4.8 12.9 0.00 0.00 0.00 69 1015.0
20240520200003 20 125 4.8 12.9 0.00 0.00 0.00 68 1015.1
20240520195404 20 109 3.2 12.9 0.00 0.00 0.00 71 1015.2
20240520194503 20 127 4.8 11.3 0.00 0.00 0.00 69 1015.2
20240520193604 20 112 3.2 9.7 0.00 0.00 0.00 74 1015.3
20240520192703 19 75 6.4 16.1 0.00 0.00 0.00 71 1015.5
20240520191804 19 62 9.7 16.1 0.00 0.00 0.00 70 1015.5
20240520190903 20 98 4.8 11.3 0.00 0.00 0.00 69 1015.7
20240520190003 20 132 4.8 12.9 0.00 0.00 0.00 70 1015.8
20240520185403 19 90 3.2 12.9 0.00 0.00 0.00 71 1015.7
20240520184503 19 51 4.8 8.0 0.00 0.00 0.00 75 1015.8
20240520183705 19 77 4.8 12.9 0.00 0.00 0.00 73 1015.9
20240520182703 18 73 4.8 14.5 0.00 0.00 0.00 73 1016.0
20240520181803 18 54 4.8 16.1 0.00 0.00 0.00 74 1016.0
20240520180904 18 134 3.2 9.7 0.00 0.00 0.00 74 1015.9
20240520180003 17 108 6.4 16.1 0.00 0.00 0.00 75 1016.0
20240520175403 17 73 6.4 16.1 0.00 0.00 0.00 76 1016.0
20240520174504 17 31 4.8 14.5 0.00 0.00 0.00 76 1016.1
20240520173603 17 41 4.8 12.9 0.00 0.00 0.00 77 1016.3
20240520172703 17 31 4.8 9.7 0.00 0.00 0.00 76 1016.2
20240520171804 17 186 3.2 11.3 0.00 0.00 0.00 80 1016.3
20240520171005 17 35 3.2 11.3 0.00 0.00 0.00 80 1016.3
20240520170107 16 59 6.4 12.9 0.00 0.00 0.00 79 1016.5
20240520165505 16 49 4.8 9.7 0.00 0.00 0.00 79 1016.4
20240520164605 16 59 4.8 8.0 0.00 0.00 0.00 79 1016.7
20240520163603 16 109 3.2 8.0 0.00 0.00 0.00 78 1016.9
20240520162705 16 104 3.2 9.7 0.00 0.00 0.00 80 1016.8
20240520161803 16 35 3.2 6.4 0.00 0.00 0.00 82 1016.8
20240520160904 15 350 3.2 6.4 0.00 0.00 0.00 82 1017.0
20240520160005 15 312 1.6 4.8 0.00 0.00 0.00 81 1017.0
20240520155404 15 271 1.6 6.4 0.00 0.00 0.00 83 1017.0
20240520154606 15 47 3.2 8.0 0.00 0.00 0.00 82 1017.0
20240520153603 15 323 1.6 4.8 0.00 0.00 0.00 85 1017.1
20240520152806 15 342 1.6 4.8 0.00 0.00 0.00 85 1017.1
20240520151804 15 148 1.6 4.8 0.00 0.00 0.00 84 1017.0
20240520150903 14 157 1.6 6.4 0.00 0.00 0.00 85 1016.9
20240520150003 14 57 1.6 6.4 0.00 0.00 0.00 85 1016.9
20240520145404 14 71 3.2 6.4 0.00 0.00 0.00 86 1016.7
20240520144503 14 93 3.2 6.4 0.00 0.00 0.00 86 1016.6
20240520143604 14 149 1.6 6.4 0.00 0.00 0.00 86 1016.6
20240520142807 13 78 3.2 4.8 0.00 0.00 0.00 88 1016.7
20240520141804 13 347 1.6 6.4 0.00 0.00 0.00 88 1016.5
20240520140904 13 347 1.6 3.2 0.00 0.00 0.00 89 1016.7
20240520140005 13 64 0.0 4.8 0.00 0.00 0.00 90 1016.8
20240520135404 13 64 1.6 4.8 0.00 0.00 0.00 90 1016.9
20240520134504 13 39 3.2 6.4 0.00 0.00 0.00 92 1017.0
20240520133603 12 40 3.2 8.0 0.00 0.00 0.00 93 1017.1
20240520132703 12 13 4.8 9.7 0.00 0.00 0.00 93 1017.2
20240520131806 12 2 3.2 6.4 0.00 0.00 0.00 94 1017.2
20240520130904 12 39 4.8 8.0 0.00 0.00 0.00 95 1017.2
20240520130003 12 33 4.8 8.0 0.00 0.00 0.00 95 1017.2
20240520125406 12 41 3.2 8.0 0.00 0.00 0.00 96 1017.3
20240520124605 12 52 4.8 11.3 0.00 0.00 0.00 96 1017.3
20240520123603 11 27 3.2 6.4 0.00 0.00 0.00 97 1017.3
20240520122703 11 1 1.6 4.8 0.00 0.00 0.00 97 1017.2
20240520121803 11 339 1.6 3.2 0.00 0.00 0.00 97 1017.1
20240520120903 11 306 1.6 4.8 0.00 0.00 0.00 97 1017.3
20240520120005 11 21 1.6 4.8 0.00 0.00 0.00 97 1017.3
20240520115403 11 59 0.0 3.2 0.00 0.00 0.00 97 1017.1
20240520114504 11 60 1.6 3.2 0.00 0.00 0.00 97 1017.1
20240520113603 11 62 1.6 6.4 0.00 0.00 0.00 97 1016.9
20240520112705 10 90 1.6 4.8 0.00 0.00 0.00 97 1016.8
20240520111803 10 87 1.6 4.8 0.00 0.00 0.00 97 1016.7
20240520110903 10 66 1.6 6.4 0.00 0.00 0.00 97 1016.6
20240520110006 10 115 0.0 3.2 0.00 0.00 0.00 97 1016.7
20240520105403 10 117 0.0 3.2 0.00 0.00 0.00 96 1016.7
20240520104606 10 184 0.0 1.6 0.00 0.00 0.00 96 1016.6
20240520103603 10 58 0.0 3.2 0.00 0.00 0.00 97 1016.6
20240520102704 10 58 0.0 4.8 0.00 0.00 0.00 97 1016.5
20240520101804 10 58 0.0 3.2 0.00 0.00 0.00 96 1016.5
20240520100904 10 58 1.6 3.2 0.00 0.00 0.00 96 1016.4
20240520100107 10 53 0.0 3.2 0.00 0.00 0.00 97 1016.5
20240520095403 10 0 0.0 0.0 0.00 0.00 0.00 97 1016.5
20240520094503 9 60 0.0 3.2 0.00 0.00 0.00 96 1016.5
20240520093603 9 0 0.0 0.0 0.00 0.00 0.00 96 1016.5
20240520092703 9 59 0.0 3.2 0.00 0.03 0.00 96 1016.4
20240520091803 9 342 0.0 3.2 0.00 0.03 0.00 96 1016.3
20240520090903 8 0 0.0 0.0 0.00 0.03 0.00 96 1016.4
20240520090003 8 0 0.0 0.0 0.00 0.03 0.00 96 1016.4
20240520085403 8 0 0.0 0.0 0.00 0.03 0.00 96 1016.3
20240520084503 8 0 0.0 0.0 0.00 0.03 0.00 96 1016.1
20240520083603 8 0 0.0 0.0 0.00 0.03 0.00 96 1016.1
20240520082806 8 0 0.0 0.0 0.00 0.03 0.00 96 1016.3
20240520081803 8 0 0.0 0.0 0.00 0.03 0.00 96 1016.3
20240520080903 8 0 0.0 0.0 0.00 0.03 0.00 96 1016.4
20240520080004 8 0 0.0 0.0 0.00 0.03 0.00 96 1016.4
20240520075505 8 0 0.0 0.0 0.00 0.03 0.00 96 1016.4
20240520074503 8 0 0.0 0.0 0.00 0.03 0.00 96 1016.3
20240520073604 8 0 0.0 0.0 0.00 0.03 0.00 96 1016.2
20240520072703 8 0 0.0 0.0 0.00 0.03 0.00 95 1016.1
20240520071804 8 0 0.0 0.0 0.00 0.03 0.00 96 1016.1
20240520070903 8 0 0.0 0.0 0.00 0.03 0.00 96 1016.1
20240520070106 8 0 0.0 0.0 0.00 0.03 0.00 96 1016.1
20240520065405 8 0 0.0 0.0 0.00 0.03 0.00 95 1016.1
20240520064503 8 0 0.0 0.0 0.00 0.03 0.00 95 1016.2
20240520063706 8 0 0.0 0.0 0.00 0.03 0.00 95 1016.3
20240520062703 8 0 0.0 0.0 0.00 0.03 0.00 96 1016.4
20240520061803 8 0 0.0 0.0 0.00 0.03 0.00 96 1016.6
20240520060904 8 0 0.0 0.0 0.00 0.03 0.00 95 1016.6
20240520060004 8 0 0.0 0.0 0.00 0.03 0.00 95 1016.5
20240520055403 8 0 0.0 0.0 0.00 0.03 0.00 95 1016.5
20240520054606 8 0 0.0 0.0 0.00 0.03 0.00 95 1016.5
20240520053603 8 292 0.0 3.2 0.00 0.03 0.00 95 1016.3
20240520052704 8 292 0.0 3.2 0.00 0.03 0.00 95 1016.5
20240520051803 8 298 0.0 1.6 0.00 0.03 0.00 95 1016.6
20240520051005 8 298 0.0 1.6 0.00 0.03 0.00 95 1016.7
20240520050004 8 304 0.0 3.2 0.00 0.03 0.00 95 1016.6
20240520045403 8 303 1.6 3.2 0.00 0.03 0.00 95 1016.6
20240520044504 8 292 1.6 4.8 0.00 0.03 0.00 95 1016.7
20240520043603 8 277 3.2 4.8 0.00 0.03 0.00 95 1016.8
20240520042704 8 274 3.2 4.8 0.00 0.03 0.00 95 1016.8
20240520041803 8 271 1.6 4.8 0.00 0.03 0.00 95 1016.8
20240520040904 8 271 1.6 3.2 0.00 0.03 0.00 95 1016.7
20240520040003 8 271 0.0 3.2 0.00 0.03 0.00 95 1016.8
20240520035403 8 271 1.6 4.8 0.00 0.03 0.03 95 1016.8
20240520034607 8 271 1.6 4.8 0.00 0.03 0.03 94 1016.8
20240520033603 8 271 0.0 1.6 0.00 0.03 0.03 94 1016.8
20240520032705 8 271 0.0 1.6 0.00 0.03 0.03 94 1016.8
20240520031906 8 269 3.2 4.8 0.00 0.03 0.03 94 1016.9
20240520031006 8 291 1.6 4.8 0.00 0.03 0.03 93 1016.9